User: anonymous   Login
Location: Caltech
(34.1382°N, 118.1253°W)
Time: 00:40:02
(UTC-08:00)
Language:

HST - Orbit

View from above orbital plane
View from above orbital plane
View from above satellite
View from above satellite

Ground track
Ground track

The orbit data is extracted from the following two-line orbital elements,

1 20580U 90037B   14325.75237663  .00004348  00000-0  27767-3 0  1610
2 20580 028.4709 080.8625 0003094 162.5650 330.3944 15.06216720148499
Epoch (UTC): 21 November 2014 18:03:25
Eccentricity: 0.0003094
inclination: 28.4709°
perigee height: 545 km
apogee height: 550 km
right ascension of ascending node: 80.8625°
argument of perigee: 162.5650°
revolutions per day: 15.06216720
mean anomaly at epoch: 330.3944°
orbit number at epoch: 14849

The dashed part of the orbit path shows where the satellite is in the earth's shadow,  

DLR